Погода в Латной

Россия / Воронежская область     51°39′24″N   38°53′36″E
темп.,
°C
ветер,
м/с
пор.,
м/с
влажн.,
%
обл.,
%
осадки,
мм/ч
давл.,
гПа
погр.,
м
18 апреля, вс
вс1800:00+7юз368119 0.0 1019165
03:00+6ююз238120 0.0 1019100
06:00+5ю258665 0.0 1018155
09:00+7ю2480100 0.0 1018393
12:00+11ю3457100 0.1 10181407
15:00+11ю3455100 0.5 10181213
18:00+10юз2266100 0.4 1017791
21:00+8ю1283100 1.8 1018209
19 апреля, пн
пн1900:00+7св3490100 6.1 1017237
03:00+7ююз3593100 9.7 1017509
06:00+5ююз128993 1.7 1017309
09:00+6юз118497 1.7 1017353
12:00+8ююз227597 0.0 1017587
15:00+9з116686 0.0 1016736
18:00+10сз116318 0.0 1016757
21:00+7с23825 0.0 101772
20 апреля, вт
вт2000:00+6св23885 0.0 101668
03:00+6св228659 0.0 101646
06:00+6св3683100 0.0 1015176
09:00+9в51085100 0.6 1014679
12:00+10в61283100 0.0 1011870
15:00+9всв81791100 3.8 10071143
18:00+8вюв102192100 15.4 10021505
21:00+10юв9169159 24.1 1000760
21 апреля, ср
ср2100:00+10ююв6149423 2.4 1000650
03:00+9ююв71391100 3.4 1001817
06:00+8ю71391100 0.9 10021146
09:00+7юз61084100 2.1 1006991
12:00+9зюз7107798 0.1 10101111
15:00+9юз61069100 0.1 10131453
18:00+7юз5879100 0.1 1016645
21:00+6юз4880100 0.1 1018384
22 апреля, чт
чт2200:00+6юз3682100 0.0 1019221
03:00+6ююз2579100 0.0 1020163
06:00+6ююз3675100 0.0 1022197
09:00+9ююз466595 0.0 1023570
12:00+13ююз445099 0.1 10231779
15:00+13ю444745 0.1 10231464
18:00+13ю455343 0.0 1023726
21:00+9ююв366371 0.0 1024125